"Pseudo-MPEC" for X81914

Created 2023 Apr 17 0:22:19 UT using Find_Orb

Click here for an explanation of pseudo-MPECs

 
 Astrometry: 
     X81914 * C2023 03 279HSW3mV4vCe9;/wPxUevScLc$iC@nQHaS!gHNUAstrometryDKt7D29
     X81914   C2023 03 27f*5p(D[Xwx*:redacted;t^wBiE^CVd#+s!Vm9CQNmZrOlJ'wd*KD29
     X81914   C2023 03 27[mlZclickQ5ZbS]mL_Ihere?xFKnfor_RCQ$explanationNAbyCD29

Station data:
(D29) Purple Mountain Observatory, XuYi Station  (N32.734363 E118.463900)
   China.  Observers H. B. Zhao, B. Li, G. Zhaori, R. Q. Hong, L. F. Hu.
   Measurers H. B. Zhao, B. Li. H. Lu, G. Zhaori. 1.04-m f/1.8 Schmidt + CCD.

Orbital elements:  X81914
   Perihelion 2023 Oct 16.14574 +/- 162 TT =  3:29:51 (JD 2460233.64574)
Epoch 2023 Mar 28.0 TT = JDT 2460031.5   Earth MOID: 0.0112      AutoNEOCP
M 180.06919073 +/- 120              (J2000 ecliptic)
n   0.89010438 +/- 0.415            Peri.  208.92488 +/- 52
a   1.07030795 +/- 0.333            Node   156.56695 +/- 42
e   0.0767871 +/- 0.235             Incl.    2.66603 +/- 51
P   1.11/404.44d           H 24.58  G  0.15   U 12.2  SR
q 0.98812208 +/- 0.651    Q 1.15249383 +/- 19.5
From 3 observations 2023 Mar. 27 (40.7 min); mean residual 0".26
Residuals in arcseconds: 
230327 D29  .12-  .23+    230327 D29  .25+  .45-    230327 D29  .12-  .23+    

Ephemerides (geocentric):
Date (UTC) HH   RA             Dec           delta  r     elong  mag " sig PA
---- --------  ------------   ------------  ------ ------ -----  --- --------
2023 04 17 00  11 34 22.530   +15 39 00.76  .18222 1.1491 139.9 22.7  34d 173
2023 04 17 01  11 34 20.213   +15 39 22.30  .18230 1.1490 139.9 22.7  34d 173
2023 04 17 02  11 34 17.906   +15 39 43.74  .18237 1.1490 139.8 22.7  34d 173
2023 04 17 03  11 34 15.607   +15 40 05.09  .18245 1.1490 139.8 22.7  34d 173
2023 04 17 04  11 34 13.316   +15 40 26.34  .18252 1.1490 139.7 22.7  34d 173
2023 04 17 05  11 34 11.034   +15 40 47.49  .18260 1.1490 139.7 22.7  34d 173
2023 04 17 06  11 34 08.760   +15 41 08.55  .18268 1.1490 139.6 22.7  34d 173
2023 04 17 07  11 34 06.495   +15 41 29.51  .18275 1.1490 139.6 22.7  34d 173
2023 04 17 08  11 34 04.239   +15 41 50.38  .18283 1.1489 139.5 22.7  34d 173
2023 04 17 09  11 34 01.991   +15 42 11.15  .18291 1.1489 139.5 22.7  34d 173
2023 04 17 10  11 33 59.752   +15 42 31.82  .18298 1.1489 139.5 22.7  34d 173
2023 04 17 11  11 33 57.521   +15 42 52.40  .18306 1.1489 139.4 22.7  34d 173
2023 04 17 12  11 33 55.298   +15 43 12.88  .18314 1.1489 139.4 22.7  34d 173
2023 04 17 13  11 33 53.085   +15 43 33.27  .18321 1.1489 139.3 22.7  34d 173
2023 04 17 14  11 33 50.879   +15 43 53.56  .18329 1.1489 139.3 22.7  34d 173
2023 04 17 15  11 33 48.683   +15 44 13.76  .18337 1.1488 139.2 22.7  34d 173
2023 04 17 16  11 33 46.495   +15 44 33.86  .18345 1.1488 139.2 22.7  34d 173
2023 04 17 17  11 33 44.315   +15 44 53.86  .18352 1.1488 139.1 22.7  34d 173
2023 04 17 18  11 33 42.144   +15 45 13.77  .18360 1.1488 139.1 22.7  34d 173
2023 04 17 19  11 33 39.982   +15 45 33.58  .18368 1.1488 139.0 22.7  34d 173
2023 04 17 20  11 33 37.828   +15 45 53.30  .18376 1.1488 139.0 22.7  34d 173
2023 04 17 21  11 33 35.683   +15 46 12.92  .18383 1.1488 138.9 22.7  34d 173
2023 04 17 22  11 33 33.546   +15 46 32.45  .18391 1.1487 138.9 22.7  34d 173
2023 04 17 23  11 33 31.418   +15 46 51.88  .18399 1.1487 138.8 22.7  34d 173
2023 04 18 00  11 33 29.298   +15 47 11.22  .18407 1.1487 138.8 22.7  34d 173
2023 04 18 01  11 33 27.187   +15 47 30.46  .18414 1.1487 138.7 22.7  34d 173
2023 04 18 02  11 33 25.085   +15 47 49.61  .18422 1.1487 138.7 22.7  34d 173
2023 04 18 03  11 33 22.991   +15 48 08.67  .18430 1.1487 138.6 22.7  34d 173
2023 04 18 04  11 33 20.906   +15 48 27.63  .18438 1.1486 138.6 22.7  34d 173
2023 04 18 05  11 33 18.829   +15 48 46.49  .18446 1.1486 138.5 22.7  34d 173
2023 04 18 06  11 33 16.761   +15 49 05.26  .18453 1.1486 138.5 22.7  34d 173
2023 04 18 07  11 33 14.701   +15 49 23.94  .18461 1.1486 138.4 22.7  34d 173
2023 04 18 08  11 33 12.650   +15 49 42.52  .18469 1.1486 138.4 22.7  34d 173
2023 04 18 09  11 33 10.608   +15 50 01.00  .18477 1.1486 138.3 22.7  34d 173
2023 04 18 10  11 33 08.574   +15 50 19.40  .18485 1.1486 138.3 22.7  34d 173
2023 04 18 11  11 33 06.549   +15 50 37.69  .18493 1.1485 138.2 22.7  34d 173
2023 04 18 12  11 33 04.533   +15 50 55.90  .18500 1.1485 138.2 22.7  34d 173
2023 04 18 13  11 33 02.525   +15 51 14.01  .18508 1.1485 138.1 22.7  34d 173
2023 04 18 14  11 33 00.525   +15 51 32.03  .18516 1.1485 138.1 22.7  34d 173
2023 04 18 15  11 32 58.534   +15 51 49.95  .18524 1.1485 138.0 22.7  34d 173
2023 04 18 16  11 32 56.552   +15 52 07.78  .18532 1.1485 138.0 22.7  34d 173
2023 04 18 17  11 32 54.579   +15 52 25.52  .18540 1.1485 137.9 22.7  34d 173
2023 04 18 18  11 32 52.613   +15 52 43.16  .18548 1.1484 137.9 22.7  34d 173
2023 04 18 19  11 32 50.657   +15 53 00.71  .18556 1.1484 137.8 22.7  34d 173
2023 04 18 20  11 32 48.709   +15 53 18.16  .18564 1.1484 137.8 22.7  34d 173
2023 04 18 21  11 32 46.770   +15 53 35.53  .18572 1.1484 137.8 22.7  34d 173
2023 04 18 22  11 32 44.839   +15 53 52.79  .18580 1.1484 137.7 22.7  34d 173
2023 04 18 23  11 32 42.917   +15 54 09.97  .18587 1.1484 137.7 22.8  34d 173